CGAJW CNQ3-CYTZ

Flight info

Callsign CGAJW
Flight time 0h 21m
Altitude 8000
Route ROTRU
Aircraft B58T/L-SDFGRY/C

Departure

Time 2026-04-21 15:41
Airport Niagara Central Dorothy Rungeling Airport (CNQ3)

Arrival

Time 2026-04-21 16:02
Airport Billy Bishop Toronto City Airport (CYTZ)
Time Latitude Longitude Altitude Speed Heading
2026-04-21 15:23 42.97500 -79.32464 581 ft 0 kts
2026-04-21 15:34 42.97503 -79.32463 581 ft 2 kts 17°
2026-04-21 15:34 42.97499 -79.32413 581 ft 10 kts 101°
2026-04-21 15:34 42.97487 -79.32326 582 ft 9 kts 103°
2026-04-21 15:34 42.97476 -79.32229 582 ft 11 kts 87°
2026-04-21 15:35 42.97508 -79.32124 583 ft 13 kts 58°
2026-04-21 15:35 42.97559 -79.32016 583 ft 11 kts 54°
2026-04-21 15:35 42.97614 -79.31931 583 ft 12 kts 28°
2026-04-21 15:35 42.97637 -79.31917 583 ft 0 kts 22°
2026-04-21 15:36 42.97638 -79.31916 583 ft 2 kts 19°
2026-04-21 15:36 42.97682 -79.31949 582 ft 13 kts 326°
2026-04-21 15:36 42.97766 -79.32026 582 ft 15 kts 326°
2026-04-21 15:37 42.97857 -79.32110 583 ft 16 kts 326°
2026-04-21 15:37 42.97948 -79.32195 582 ft 16 kts 326°
2026-04-21 15:37 42.98039 -79.32281 582 ft 16 kts 325°
2026-04-21 15:37 42.98130 -79.32365 581 ft 16 kts 326°
2026-04-21 15:38 42.98197 -79.32436 582 ft 9 kts 308°
2026-04-21 15:38 42.98190 -79.32469 582 ft 3 kts 218°
2026-04-21 15:38 42.98182 -79.32477 581 ft 0 kts 219°
2026-04-21 15:40 42.98176 -79.32484 581 ft 10 kts 219°
2026-04-21 15:40 42.97878 -79.32793 583 ft 91 kts 212°
2026-04-21 15:41 42.97327 -79.33421 844 ft 114 kts 220°
2026-04-21 15:41 42.96714 -79.34232 1168 ft 133 kts 219°
2026-04-21 15:41 42.96025 -79.35191 1431 ft 148 kts 233°
2026-04-21 15:41 42.95863 -79.36631 1727 ft 169 kts 276°
2026-04-21 15:42 42.96288 -79.38163 2023 ft 176 kts 284°
2026-04-21 15:42 42.96763 -79.39712 2291 ft 176 kts 284°
2026-04-21 15:42 42.97229 -79.41233 2553 ft 172 kts 284°
2026-04-21 15:42 42.97685 -79.42729 2846 ft 172 kts 285°
2026-04-21 15:43 42.98160 -79.44236 3089 ft 173 kts 289°
2026-04-21 15:43 42.99026 -79.45408 3333 ft 188 kts 328°
2026-04-21 15:43 43.00335 -79.45552 3592 ft 195 kts 12°
2026-04-21 15:43 43.01466 -79.44559 3847 ft 195 kts 44°
2026-04-21 15:44 43.02408 -79.43235 4115 ft 196 kts 45°
2026-04-21 15:44 43.03360 -79.41885 4378 ft 197 kts 45°
2026-04-21 15:44 43.04310 -79.40526 4639 ft 196 kts 46°
2026-04-21 15:44 43.05228 -79.39172 4906 ft 193 kts 45°
2026-04-21 15:45 43.06130 -79.37802 5175 ft 196 kts 46°
2026-04-21 15:45 43.07040 -79.36432 5438 ft 197 kts 44°
2026-04-21 15:45 43.08035 -79.35134 5690 ft 193 kts 26°
2026-04-21 15:45 43.09260 -79.34823 5937 ft 176 kts 341°
2026-04-21 15:46 43.10334 -79.35466 6221 ft 168 kts 329°
2026-04-21 15:46 43.11490 -79.35922 6494 ft 175 kts 342°
2026-04-21 15:46 43.12699 -79.36216 6772 ft 176 kts 342°
2026-04-21 15:46 43.13891 -79.36516 7059 ft 171 kts 341°
2026-04-21 15:47 43.15043 -79.36815 7351 ft 167 kts 341°
2026-04-21 15:47 43.16172 -79.37107 7647 ft 164 kts 340°
2026-04-21 15:47 43.17285 -79.37389 7945 ft 162 kts 340°
2026-04-21 15:47 43.18425 -79.37687 8010 ft 173 kts 340°
2026-04-21 15:48 43.19641 -79.38001 8025 ft 182 kts 341°
2026-04-21 15:48 43.20906 -79.38321 8024 ft 187 kts 341°
2026-04-21 15:48 43.22184 -79.38646 8021 ft 191 kts 341°
2026-04-21 15:48 43.23500 -79.38983 8023 ft 193 kts 341°
2026-04-21 15:49 43.24829 -79.39323 8022 ft 194 kts 341°
2026-04-21 15:49 43.26162 -79.39665 8025 ft 195 kts 341°
2026-04-21 15:49 43.27499 -79.40008 8022 ft 196 kts 341°
2026-04-21 15:49 43.28839 -79.40353 8023 ft 196 kts 341°
2026-04-21 15:50 43.30183 -79.40697 8020 ft 196 kts 341°
2026-04-21 15:50 43.31360 -79.41000 8022 ft 196 kts 341°
2026-04-21 15:50 43.31708 -79.41090 8024 ft 196 kts 341°
2026-04-21 15:50 43.33053 -79.41439 8023 ft 196 kts 341°
2026-04-21 15:51 43.34395 -79.41784 8022 ft 196 kts 341°
2026-04-21 15:51 43.35740 -79.42130 8020 ft 197 kts 341°
2026-04-21 15:51 43.37066 -79.42471 8021 ft 197 kts 341°
2026-04-21 15:51 43.38412 -79.42818 8021 ft 197 kts 341°
2026-04-21 15:52 43.39757 -79.43165 8020 ft 197 kts 341°
2026-04-21 15:52 43.41105 -79.43513 8020 ft 197 kts 341°
2026-04-21 15:52 43.42449 -79.43860 8021 ft 197 kts 341°
2026-04-21 15:52 43.43795 -79.44208 8019 ft 197 kts 341°
2026-04-21 15:53 43.45131 -79.44593 8016 ft 193 kts 333°
2026-04-21 15:53 43.46109 -79.45676 8020 ft 178 kts 295°
2026-04-21 15:53 43.46275 -79.47304 8023 ft 175 kts 260°
2026-04-21 15:53 43.45919 -79.48928 7923 ft 180 kts 254°
2026-04-21 15:54 43.45514 -79.50560 7572 ft 180 kts 253°
2026-04-21 15:54 43.45090 -79.52170 7248 ft 179 kts 251°
2026-04-21 15:54 43.44640 -79.53767 6897 ft 179 kts 251°
2026-04-21 15:54 43.44214 -79.55325 6451 ft 171 kts 252°
2026-04-21 15:55 43.43840 -79.56882 5845 ft 172 kts 252°
2026-04-21 15:55 43.43462 -79.58448 5149 ft 177 kts 250°
2026-04-21 15:55 43.43201 -79.60103 4484 ft 179 kts 263°
2026-04-21 15:55 43.43293 -79.61805 3917 ft 177 kts 274°
2026-04-21 15:56 43.43708 -79.63388 3367 ft 183 kts 298°
2026-04-21 15:56 43.44806 -79.64462 2574 ft 209 kts 336°
2026-04-21 15:56 43.46212 -79.64439 2343 ft 206 kts 18°
2026-04-21 15:56 43.47369 -79.63390 2249 ft 193 kts 41°
2026-04-21 15:57 43.48426 -79.62261 2122 ft 189 kts 34°
2026-04-21 15:57 43.49546 -79.61397 2141 ft 177 kts 28°
2026-04-21 15:57 43.50628 -79.60643 2221 ft 175 kts 27°
2026-04-21 15:57 43.51700 -79.59907 2029 ft 173 kts 28°
2026-04-21 15:58 43.52714 -79.59036 1834 ft 169 kts 39°
2026-04-21 15:58 43.53615 -79.58081 1855 ft 157 kts 39°
2026-04-21 15:58 43.54466 -79.57204 1887 ft 150 kts 39°
2026-04-21 15:58 43.55291 -79.56273 1708 ft 157 kts 45°
2026-04-21 15:59 43.56062 -79.55215 1599 ft 155 kts 51°
2026-04-21 15:59 43.56827 -79.54158 1472 ft 155 kts 46°
2026-04-21 15:59 43.57557 -79.53209 1620 ft 138 kts 47°
2026-04-21 15:59 43.58244 -79.52311 1737 ft 137 kts 50°
2026-04-21 16:00 43.58841 -79.51223 1703 ft 152 kts 60°
2026-04-21 16:00 43.59498 -79.50032 1726 ft 159 kts 55°
2026-04-21 16:00 43.60226 -79.48851 1684 ft 165 kts 52°
2026-04-21 16:00 43.60986 -79.47667 1593 ft 162 kts 52°
2026-04-21 16:01 43.61445 -79.46364 1565 ft 141 kts 77°
2026-04-21 16:01 43.61731 -79.45165 1407 ft 127 kts 79°
2026-04-21 16:01 43.61969 -79.44013 1189 ft 123 kts 82°
2026-04-21 16:01 43.62196 -79.42893 932 ft 120 kts 79°
2026-04-21 16:02 43.62427 -79.41779 569 ft 116 kts 76°
2026-04-21 16:02 43.62649 -79.40769 353 ft 106 kts 75°
2026-04-21 16:02 43.62856 -79.39879 251 ft 83 kts 71°
2026-04-21 16:02 43.62955 -79.39488 254 ft 26 kts 70°
2026-04-21 16:03 43.63014 -79.39254 253 ft 17 kts 63°
2026-04-21 16:03 43.63082 -79.39264 251 ft 11 kts 319°
2026-04-21 16:03 43.63083 -79.39325 251 ft 0 kts 250°
2026-04-21 16:07 43.63078 -79.39341 251 ft 6 kts 248°
2026-04-21 16:07 43.63053 -79.39447 251 ft 17 kts 254°
2026-04-21 16:07 43.63014 -79.39604 251 ft 15 kts 250°
2026-04-21 16:07 43.63001 -79.39695 251 ft 8 kts 303°
2026-04-21 16:08 43.63026 -79.39793 251 ft 5 kts 149°
2026-04-21 16:08 43.63022 -79.39784 251 ft 1 kts 85°
2026-04-21 16:08 43.63023 -79.39782 251 ft 0 kts 75°